Year,Month,Day,Hour,Minute,Value (Times are PST for temperature in C)
2010,05,06,00,00,7.10
2010,05,06,00,01,7.10
2010,05,06,00,02,7.10
2010,05,06,00,03,7.10
2010,05,06,00,04,7.10
2010,05,06,00,05,7.10
2010,05,06,00,06,7.10
2010,05,06,00,07,7.10
2010,05,06,00,08,7.10
2010,05,06,00,09,7.10
2010,05,06,00,10,7.10
2010,05,06,00,11,7.10
2010,05,06,00,12,7.10
2010,05,06,00,13,7.10
2010,05,06,00,14,7.10
2010,05,06,00,15,7.10
2010,05,06,00,16,7.10
2010,05,06,00,17,7.10
2010,05,06,00,18,7.10
2010,05,06,00,19,7.10
2010,05,06,00,20,7.00
2010,05,06,00,21,7.00
2010,05,06,00,22,7.00
2010,05,06,00,23,7.00
2010,05,06,00,24,7.00
2010,05,06,00,25,6.90
2010,05,06,00,26,6.90
2010,05,06,00,27,6.90
2010,05,06,00,28,6.90
2010,05,06,00,29,6.90
2010,05,06,00,30,6.90
2010,05,06,00,31,6.90
2010,05,06,00,32,6.90
2010,05,06,00,33,6.90
2010,05,06,00,34,6.90
2010,05,06,00,35,6.90
2010,05,06,00,36,6.90
2010,05,06,00,37,6.90
2010,05,06,00,38,6.90
2010,05,06,00,39,6.90
2010,05,06,00,40,6.90
2010,05,06,00,41,6.80
2010,05,06,00,42,6.80
2010,05,06,00,43,6.80
2010,05,06,00,44,6.80
2010,05,06,00,45,6.80
2010,05,06,00,46,6.80
2010,05,06,00,47,6.80
2010,05,06,00,48,6.80
2010,05,06,00,49,6.90
2010,05,06,00,50,6.90
2010,05,06,00,51,6.90
2010,05,06,00,52,6.90
2010,05,06,00,53,7.00
2010,05,06,00,54,7.00
2010,05,06,00,55,7.00
2010,05,06,00,56,7.00
2010,05,06,00,57,7.00
2010,05,06,00,58,7.00
2010,05,06,00,59,7.00
2010,05,06,01,00,7.00
2010,05,06,01,01,7.00
2010,05,06,01,02,7.00
2010,05,06,01,03,7.00
2010,05,06,01,04,7.00
2010,05,06,01,05,7.00
2010,05,06,01,06,6.90
2010,05,06,01,07,6.90
2010,05,06,01,08,6.90
2010,05,06,01,09,6.90
2010,05,06,01,10,6.90
2010,05,06,01,11,6.90
2010,05,06,01,12,6.90
2010,05,06,01,13,6.90
2010,05,06,01,14,6.90
2010,05,06,01,15,6.90
2010,05,06,01,16,6.80
2010,05,06,01,17,6.80
2010,05,06,01,18,6.80
2010,05,06,01,19,6.80
2010,05,06,01,20,6.80
2010,05,06,01,21,6.80
2010,05,06,01,22,6.80
2010,05,06,01,23,6.80
2010,05,06,01,24,6.80
2010,05,06,01,25,6.80
2010,05,06,01,26,6.80
2010,05,06,01,27,6.80
2010,05,06,01,28,6.80
2010,05,06,01,29,6.80
2010,05,06,01,30,6.80
2010,05,06,01,31,6.80
2010,05,06,01,32,6.80
2010,05,06,01,33,6.80
2010,05,06,01,34,6.80
2010,05,06,01,35,6.80
2010,05,06,01,36,6.80
2010,05,06,01,37,6.80
2010,05,06,01,38,6.80
2010,05,06,01,39,6.80
2010,05,06,01,40,6.70
2010,05,06,01,41,6.70
2010,05,06,01,42,6.70
2010,05,06,01,43,6.70
2010,05,06,01,44,6.70
2010,05,06,01,45,6.70
2010,05,06,01,46,6.70
2010,05,06,01,47,6.70
2010,05,06,01,48,6.60
2010,05,06,01,49,6.60
2010,05,06,01,50,6.60
2010,05,06,01,51,6.60
2010,05,06,01,52,6.60
2010,05,06,01,53,6.60
2010,05,06,01,54,6.60
2010,05,06,01,55,6.60
2010,05,06,01,56,6.60
2010,05,06,01,57,6.60
2010,05,06,01,58,6.60
2010,05,06,01,59,6.60
2010,05,06,02,00,6.60
2010,05,06,02,01,6.60
2010,05,06,02,02,6.60
2010,05,06,02,03,6.60
2010,05,06,02,04,6.40
2010,05,06,02,05,6.40
2010,05,06,02,06,6.40
2010,05,06,02,07,6.40
2010,05,06,02,08,6.40
2010,05,06,02,09,6.30
2010,05,06,02,10,6.30
2010,05,06,02,11,6.30
2010,05,06,02,12,6.20
2010,05,06,02,13,6.20
2010,05,06,02,14,6.20
2010,05,06,02,15,6.20
2010,05,06,02,16,6.10
2010,05,06,02,17,6.10
2010,05,06,02,18,6.10
2010,05,06,02,19,6.10
2010,05,06,02,20,6.00
2010,05,06,02,21,6.00
2010,05,06,02,22,6.00
2010,05,06,02,23,6.00
2010,05,06,02,24,6.00
2010,05,06,02,25,6.00
2010,05,06,02,26,6.00
2010,05,06,02,27,6.00
2010,05,06,02,28,5.90
2010,05,06,02,29,5.90
2010,05,06,02,30,5.90
2010,05,06,02,31,5.90
2010,05,06,02,32,5.80
2010,05,06,02,33,5.80
2010,05,06,02,34,5.80
2010,05,06,02,35,5.80
2010,05,06,02,36,5.80
2010,05,06,02,37,5.70
2010,05,06,02,38,5.70
2010,05,06,02,39,5.70
2010,05,06,02,40,5.70
2010,05,06,02,41,5.70
2010,05,06,02,42,5.70
2010,05,06,02,43,5.70
2010,05,06,02,44,5.70
2010,05,06,02,45,5.70
2010,05,06,02,46,5.60
2010,05,06,02,47,5.60
2010,05,06,02,48,5.60
2010,05,06,02,49,5.60
2010,05,06,02,50,5.60
2010,05,06,02,51,5.60
2010,05,06,02,52,5.50
2010,05,06,02,53,5.50
2010,05,06,02,54,5.50
2010,05,06,02,55,5.40
2010,05,06,02,56,5.40
2010,05,06,02,57,5.40
2010,05,06,02,58,5.30
2010,05,06,02,59,5.30
2010,05,06,03,00,5.30
2010,05,06,03,01,5.30
2010,05,06,03,02,5.30
2010,05,06,03,03,5.20
2010,05,06,03,04,5.20
2010,05,06,03,05,5.10
2010,05,06,03,06,5.10
2010,05,06,03,07,5.10
2010,05,06,03,08,5.10
2010,05,06,03,09,5.10
2010,05,06,03,10,5.00
2010,05,06,03,11,4.90
2010,05,06,03,12,4.90
2010,05,06,03,13,4.90
2010,05,06,03,14,4.90
2010,05,06,03,15,4.80
2010,05,06,03,16,4.80
2010,05,06,03,17,4.80
2010,05,06,03,18,4.80
2010,05,06,03,19,4.70
2010,05,06,03,20,4.70
2010,05,06,03,21,4.70
2010,05,06,03,22,4.60
2010,05,06,03,23,4.60
2010,05,06,03,24,4.60
2010,05,06,03,25,4.60
2010,05,06,03,26,4.60
2010,05,06,03,27,4.60
2010,05,06,03,28,4.60
2010,05,06,03,29,4.60
2010,05,06,03,30,4.60
2010,05,06,03,31,4.60
2010,05,06,03,32,4.50
2010,05,06,03,33,4.50
2010,05,06,03,34,4.50
2010,05,06,03,35,4.50
2010,05,06,03,36,4.50
2010,05,06,03,37,4.40
2010,05,06,03,38,4.40
2010,05,06,03,39,4.40
2010,05,06,03,40,4.40
2010,05,06,03,41,4.40
2010,05,06,03,42,4.30
2010,05,06,03,43,4.30
2010,05,06,03,44,4.30
2010,05,06,03,45,4.30
2010,05,06,03,46,4.30
2010,05,06,03,47,4.30
2010,05,06,03,48,4.20
2010,05,06,03,49,4.20
2010,05,06,03,50,4.20
2010,05,06,03,51,4.20
2010,05,06,03,52,4.20
2010,05,06,03,53,4.20
2010,05,06,03,54,4.20
2010,05,06,03,55,4.20
2010,05,06,03,56,4.20
2010,05,06,03,57,4.20
2010,05,06,03,58,4.20
2010,05,06,03,59,4.20
2010,05,06,04,00,4.20
2010,05,06,04,01,4.20
2010,05,06,04,02,4.20
2010,05,06,04,03,4.20
2010,05,06,04,04,4.20
2010,05,06,04,05,4.20
2010,05,06,04,06,4.20
2010,05,06,04,07,4.20
2010,05,06,04,08,4.20
2010,05,06,04,09,4.20
2010,05,06,04,10,4.20
2010,05,06,04,11,4.20
2010,05,06,04,12,4.20
2010,05,06,04,13,4.20
2010,05,06,04,14,4.20
2010,05,06,04,15,4.20
2010,05,06,04,16,4.10
2010,05,06,04,17,4.10
2010,05,06,04,18,4.10
2010,05,06,04,19,4.10
2010,05,06,04,20,4.10
2010,05,06,04,21,4.10
2010,05,06,04,22,4.10
2010,05,06,04,23,4.10
2010,05,06,04,24,4.10
2010,05,06,04,25,4.10
2010,05,06,04,26,4.10
2010,05,06,04,27,4.10
2010,05,06,04,28,4.20
2010,05,06,04,29,4.20
2010,05,06,04,30,4.20
2010,05,06,04,31,4.10
2010,05,06,04,32,4.10
2010,05,06,04,33,4.10
2010,05,06,04,34,4.10
2010,05,06,04,35,4.10
2010,05,06,04,36,4.10
2010,05,06,04,37,4.10
2010,05,06,04,38,4.10
2010,05,06,04,39,4.10
2010,05,06,04,40,4.20
2010,05,06,04,41,4.20
2010,05,06,04,42,4.20
2010,05,06,04,43,4.20
2010,05,06,04,44,4.20
2010,05,06,04,45,4.20
2010,05,06,04,46,4.20
2010,05,06,04,47,4.20
2010,05,06,04,48,4.20
2010,05,06,04,49,4.20
2010,05,06,04,50,4.20
2010,05,06,04,51,4.20
2010,05,06,04,52,4.20
2010,05,06,04,53,4.20
2010,05,06,04,54,4.20
2010,05,06,04,55,4.20
2010,05,06,04,56,4.20
2010,05,06,04,57,4.20
2010,05,06,04,58,4.20
2010,05,06,04,59,4.20
2010,05,06,05,00,4.20
2010,05,06,05,01,4.20
2010,05,06,05,02,4.20
2010,05,06,05,03,4.20
2010,05,06,05,04,4.20
2010,05,06,05,05,4.20
2010,05,06,05,06,4.20
2010,05,06,05,07,4.20
2010,05,06,05,08,4.20
2010,05,06,05,09,4.20
2010,05,06,05,10,4.20
2010,05,06,05,11,4.20
2010,05,06,05,12,4.20
2010,05,06,05,13,4.20
2010,05,06,05,14,4.20
2010,05,06,05,15,4.20
2010,05,06,05,16,4.20
2010,05,06,05,17,4.20
2010,05,06,05,18,4.20
2010,05,06,05,19,4.20
2010,05,06,05,20,4.20
2010,05,06,05,21,4.20
2010,05,06,05,22,4.20
2010,05,06,05,23,4.20
2010,05,06,05,24,4.20
2010,05,06,05,25,4.10
2010,05,06,05,26,4.10
2010,05,06,05,27,4.10
2010,05,06,05,28,4.10
2010,05,06,05,29,4.10
2010,05,06,05,30,4.10
2010,05,06,05,31,4.20
2010,05,06,05,32,4.20
2010,05,06,05,33,4.20
2010,05,06,05,34,4.20
2010,05,06,05,35,4.20
2010,05,06,05,36,4.20
2010,05,06,05,37,4.20
2010,05,06,05,38,4.20
2010,05,06,05,39,4.20
2010,05,06,05,40,4.30
2010,05,06,05,41,4.30
2010,05,06,05,42,4.30
2010,05,06,05,43,4.30
2010,05,06,05,44,4.30
2010,05,06,05,45,4.30
2010,05,06,05,46,4.30
2010,05,06,05,47,4.30
2010,05,06,05,48,4.30
2010,05,06,05,49,4.30
2010,05,06,05,50,4.30
2010,05,06,05,51,4.30
2010,05,06,05,52,4.30
2010,05,06,05,53,4.30
2010,05,06,05,54,4.30
2010,05,06,05,55,4.30
2010,05,06,05,56,4.30
2010,05,06,05,57,4.30
2010,05,06,05,58,4.30
2010,05,06,05,59,4.30
2010,05,06,06,00,4.30
2010,05,06,06,01,4.30
2010,05,06,06,02,4.20
2010,05,06,06,03,4.20
2010,05,06,06,04,4.20
2010,05,06,06,05,4.20
2010,05,06,06,06,4.20
2010,05,06,06,07,4.20
2010,05,06,06,08,4.20
2010,05,06,06,09,4.10
2010,05,06,06,10,4.10
2010,05,06,06,11,4.10
2010,05,06,06,12,4.10
2010,05,06,06,13,4.10
2010,05,06,06,14,4.10
2010,05,06,06,15,4.10
2010,05,06,06,16,4.10
2010,05,06,06,17,4.10
2010,05,06,06,18,4.10
2010,05,06,06,19,4.10
2010,05,06,06,20,4.10
2010,05,06,06,21,4.10
2010,05,06,06,22,4.10
2010,05,06,06,23,4.10
2010,05,06,06,24,4.10
2010,05,06,06,25,4.10
2010,05,06,06,26,4.10
2010,05,06,06,27,4.10
2010,05,06,06,28,4.20
2010,05,06,06,29,4.20
2010,05,06,06,30,4.20
2010,05,06,06,31,4.20
2010,05,06,06,32,4.20
2010,05,06,06,33,4.20
2010,05,06,06,34,4.20
2010,05,06,06,35,4.30
2010,05,06,06,36,4.30
2010,05,06,06,37,4.30
2010,05,06,06,38,4.30
2010,05,06,06,39,4.30
2010,05,06,06,40,4.40
2010,05,06,06,41,4.40
2010,05,06,06,42,4.40
2010,05,06,06,43,4.40
2010,05,06,06,44,4.50
2010,05,06,06,45,4.50
2010,05,06,06,46,4.60
2010,05,06,06,47,4.60
2010,05,06,06,48,4.60
2010,05,06,06,49,4.60
2010,05,06,06,50,4.70
2010,05,06,06,51,4.70
2010,05,06,06,52,4.80
2010,05,06,06,53,4.80
2010,05,06,06,54,4.90
2010,05,06,06,55,4.90
2010,05,06,06,56,4.90
2010,05,06,06,57,4.90
2010,05,06,06,58,4.90
2010,05,06,06,59,5.00
2010,05,06,07,00,5.10
2010,05,06,07,01,5.10
2010,05,06,07,02,5.10
2010,05,06,07,03,5.10
2010,05,06,07,04,5.10
2010,05,06,07,05,5.20
2010,05,06,07,06,5.30
2010,05,06,07,07,5.30
2010,05,06,07,08,5.40
2010,05,06,07,09,5.40
2010,05,06,07,10,5.50
2010,05,06,07,11,5.60
2010,05,06,07,12,5.70
2010,05,06,07,13,5.80
2010,05,06,07,14,5.90
2010,05,06,07,15,6.00
2010,05,06,07,16,6.00
2010,05,06,07,17,6.10
2010,05,06,07,18,6.10
2010,05,06,07,19,6.20
2010,05,06,07,20,6.20
2010,05,06,07,21,6.30
2010,05,06,07,22,6.30
2010,05,06,07,23,6.30
2010,05,06,07,24,6.40
2010,05,06,07,25,6.40
2010,05,06,07,26,6.40
2010,05,06,07,27,6.40
2010,05,06,07,28,6.50
2010,05,06,07,29,6.60
2010,05,06,07,30,6.60
2010,05,06,07,31,6.70
2010,05,06,07,32,6.80
2010,05,06,07,33,6.90
2010,05,06,07,34,7.00
2010,05,06,07,35,7.10
2010,05,06,07,36,7.20
2010,05,06,07,37,7.30
2010,05,06,07,38,7.40
2010,05,06,07,39,7.40
2010,05,06,07,40,7.50
2010,05,06,07,41,7.60
2010,05,06,07,42,7.70
2010,05,06,07,43,7.70
2010,05,06,07,44,7.80
2010,05,06,07,45,7.90
2010,05,06,07,46,7.90
2010,05,06,07,47,8.00
2010,05,06,07,48,8.10
2010,05,06,07,49,8.10
2010,05,06,07,50,8.10
2010,05,06,07,51,8.20
2010,05,06,07,52,8.20
2010,05,06,07,53,8.20
2010,05,06,07,54,8.20
2010,05,06,07,55,8.20
2010,05,06,07,56,8.20
2010,05,06,07,57,8.30
2010,05,06,07,58,8.30
2010,05,06,07,59,8.40
2010,05,06,08,00,8.50
2010,05,06,08,01,8.60
2010,05,06,08,02,8.70
2010,05,06,08,03,8.70
2010,05,06,08,04,8.70
2010,05,06,08,05,8.80
2010,05,06,08,06,8.90
2010,05,06,08,07,9.00
2010,05,06,08,08,9.20
2010,05,06,08,09,9.20
2010,05,06,08,10,9.40
2010,05,06,08,11,9.50
2010,05,06,08,12,9.60
2010,05,06,08,13,9.70
2010,05,06,08,14,9.80
2010,05,06,08,15,9.90
2010,05,06,08,16,9.90
2010,05,06,08,17,9.90
2010,05,06,08,18,9.80
2010,05,06,08,19,9.80
2010,05,06,08,20,9.80
2010,05,06,08,21,9.90
2010,05,06,08,22,9.90
2010,05,06,08,23,9.90
2010,05,06,08,24,9.80
2010,05,06,08,25,9.80
2010,05,06,08,26,9.80
2010,05,06,08,27,9.90
2010,05,06,08,28,9.90
2010,05,06,08,29,9.90
2010,05,06,08,30,9.90
2010,05,06,08,31,9.90
2010,05,06,08,32,9.90
2010,05,06,08,33,9.90
2010,05,06,08,34,9.90
2010,05,06,08,35,9.90
2010,05,06,08,36,9.90
2010,05,06,08,37,10.00
2010,05,06,08,38,10.10
2010,05,06,08,39,10.10
2010,05,06,08,40,10.10
2010,05,06,08,41,10.10
2010,05,06,08,42,10.20
2010,05,06,08,43,10.20
2010,05,06,08,44,10.20
2010,05,06,08,45,10.30
2010,05,06,08,46,10.40
2010,05,06,08,47,10.30
2010,05,06,08,48,10.20
2010,05,06,08,49,10.10
2010,05,06,08,50,10.00
2010,05,06,08,51,9.90
2010,05,06,08,52,9.80
2010,05,06,08,53,9.70
2010,05,06,08,54,9.70
2010,05,06,08,55,9.70
2010,05,06,08,56,9.70
2010,05,06,08,57,9.70
2010,05,06,08,58,9.70
2010,05,06,08,59,9.70
2010,05,06,09,00,9.70
2010,05,06,09,01,9.70
2010,05,06,09,02,9.70
2010,05,06,09,03,9.70
2010,05,06,09,04,9.70
2010,05,06,09,05,9.70
2010,05,06,09,06,9.70
2010,05,06,09,07,9.70
2010,05,06,09,08,9.70
2010,05,06,09,09,9.70
2010,05,06,09,10,9.70
2010,05,06,09,11,9.80
2010,05,06,09,12,9.70
2010,05,06,09,13,9.60
2010,05,06,09,14,9.60
2010,05,06,09,15,9.70
2010,05,06,09,16,9.80
2010,05,06,09,17,9.80
2010,05,06,09,18,9.90
2010,05,06,09,19,9.90
2010,05,06,09,20,10.00
2010,05,06,09,21,10.10
2010,05,06,09,22,10.10
2010,05,06,09,23,10.10
2010,05,06,09,24,10.10
2010,05,06,09,25,10.10
2010,05,06,09,26,10.20
2010,05,06,09,27,10.30
2010,05,06,09,28,10.40
2010,05,06,09,29,10.30
2010,05,06,09,30,10.30
2010,05,06,09,31,10.20
2010,05,06,09,32,10.10
2010,05,06,09,33,10.00
2010,05,06,09,34,10.00
2010,05,06,09,35,9.90
2010,05,06,09,36,9.90
2010,05,06,09,37,9.90
2010,05,06,09,38,9.90
2010,05,06,09,39,9.80
2010,05,06,09,40,9.70
2010,05,06,09,41,9.80
2010,05,06,09,42,9.90
2010,05,06,09,43,9.90
2010,05,06,09,44,9.90
2010,05,06,09,45,9.80
2010,05,06,09,46,9.70
2010,05,06,09,47,9.70
2010,05,06,09,48,9.70
2010,05,06,09,49,9.80
2010,05,06,09,50,9.80
2010,05,06,09,51,9.80
2010,05,06,09,52,10.00
2010,05,06,09,53,10.10
2010,05,06,09,54,10.20
2010,05,06,09,55,10.30
2010,05,06,09,56,10.30
2010,05,06,09,57,10.30
2010,05,06,09,58,10.30
2010,05,06,09,59,10.20
2010,05,06,10,00,10.10
2010,05,06,10,01,10.10
2010,05,06,10,02,10.10
2010,05,06,10,03,10.20
2010,05,06,10,04,10.30
2010,05,06,10,05,10.40
2010,05,06,10,06,10.40
2010,05,06,10,07,10.40
2010,05,06,10,08,10.40
2010,05,06,10,09,10.30
2010,05,06,10,10,10.30
2010,05,06,10,11,10.40
2010,05,06,10,12,10.40
2010,05,06,10,13,10.30
2010,05,06,10,14,10.20
2010,05,06,10,15,10.20
2010,05,06,10,16,10.10
2010,05,06,10,17,10.20
2010,05,06,10,18,10.40
2010,05,06,10,19,10.40
2010,05,06,10,20,10.50
2010,05,06,10,21,10.60
2010,05,06,10,22,10.60
2010,05,06,10,23,10.60
2010,05,06,10,24,10.50
2010,05,06,10,25,10.30
2010,05,06,10,26,10.20
2010,05,06,10,27,10.30
2010,05,06,10,28,10.20
2010,05,06,10,29,10.10
2010,05,06,10,30,9.90
2010,05,06,10,31,9.80
2010,05,06,10,32,9.80
2010,05,06,10,33,10.00
2010,05,06,10,34,10.10
2010,05,06,10,35,10.10
2010,05,06,10,36,10.10
2010,05,06,10,37,10.30
2010,05,06,10,38,10.50
2010,05,06,10,39,10.60
2010,05,06,10,40,10.70
2010,05,06,10,41,10.70
2010,05,06,10,42,10.60
2010,05,06,10,43,10.60
2010,05,06,10,44,10.70
2010,05,06,10,45,10.70
2010,05,06,10,46,10.70
2010,05,06,10,47,10.60
2010,05,06,10,48,10.50
2010,05,06,10,49,10.40
2010,05,06,10,50,10.30
2010,05,06,10,51,10.20
2010,05,06,10,52,10.20
2010,05,06,10,53,10.20
2010,05,06,10,54,10.00
2010,05,06,10,55,10.00
2010,05,06,10,56,10.10
2010,05,06,10,57,10.10
2010,05,06,10,58,10.30
2010,05,06,10,59,10.30
2010,05,06,11,00,10.40
2010,05,06,11,01,10.60
2010,05,06,11,02,10.80
2010,05,06,11,03,10.90
2010,05,06,11,04,10.90
2010,05,06,11,05,10.90
2010,05,06,11,06,10.90
2010,05,06,11,07,10.90
2010,05,06,11,08,10.90
2010,05,06,11,09,10.70
2010,05,06,11,10,10.80
2010,05,06,11,11,10.70
2010,05,06,11,12,10.60
2010,05,06,11,13,10.40
2010,05,06,11,14,10.30
2010,05,06,11,15,10.20
2010,05,06,11,16,10.20
2010,05,06,11,17,10.10
2010,05,06,11,18,10.00
2010,05,06,11,19,9.90
2010,05,06,11,20,10.00
2010,05,06,11,21,10.10
2010,05,06,11,22,10.20
2010,05,06,11,23,10.40
2010,05,06,11,24,10.40
2010,05,06,11,25,10.60
2010,05,06,11,26,10.80
2010,05,06,11,27,10.90
2010,05,06,11,28,11.10
2010,05,06,11,29,11.10
2010,05,06,11,30,11.10
2010,05,06,11,31,11.00
2010,05,06,11,32,10.90
2010,05,06,11,33,10.90
2010,05,06,11,34,10.70
2010,05,06,11,35,10.60
2010,05,06,11,36,10.60
2010,05,06,11,37,10.80
2010,05,06,11,38,11.00
2010,05,06,11,39,11.10
2010,05,06,11,40,11.20
2010,05,06,11,41,11.10
2010,05,06,11,42,10.80
2010,05,06,11,43,10.60
2010,05,06,11,44,10.50
2010,05,06,11,45,10.30
2010,05,06,11,46,10.30
2010,05,06,11,47,10.40
2010,05,06,11,48,10.40
2010,05,06,11,49,10.30
2010,05,06,11,50,10.30
2010,05,06,11,51,10.30
2010,05,06,11,52,10.40
2010,05,06,11,53,10.30
2010,05,06,11,54,10.40
2010,05,06,11,55,10.40
2010,05,06,11,56,10.60
2010,05,06,11,57,10.80
2010,05,06,11,58,11.00
2010,05,06,11,59,11.10
2010,05,06,12,00,10.90
2010,05,06,12,01,10.90
2010,05,06,12,02,10.80
2010,05,06,12,03,10.70
2010,05,06,12,04,10.50
2010,05,06,12,05,10.40
2010,05,06,12,06,10.40
2010,05,06,12,07,10.40
2010,05,06,12,08,10.50
2010,05,06,12,09,10.40
2010,05,06,12,10,10.40
2010,05,06,12,11,10.30
2010,05,06,12,12,10.30
2010,05,06,12,13,10.40
2010,05,06,12,14,10.40
2010,05,06,12,15,10.40
2010,05,06,12,16,10.40
2010,05,06,12,17,10.40
2010,05,06,12,18,10.40
2010,05,06,12,19,10.30
2010,05,06,12,20,10.30
2010,05,06,12,21,10.40
2010,05,06,12,22,10.40
2010,05,06,12,23,10.40
2010,05,06,12,24,10.40
2010,05,06,12,25,10.60
2010,05,06,12,26,10.80
2010,05,06,12,27,11.00
2010,05,06,12,28,11.20
2010,05,06,12,29,11.20
2010,05,06,12,30,11.10
2010,05,06,12,31,11.00
2010,05,06,12,32,10.80
2010,05,06,12,33,10.80
2010,05,06,12,34,10.80
2010,05,06,12,35,10.90
2010,05,06,12,36,11.10
2010,05,06,12,37,11.20
2010,05,06,12,38,11.30
2010,05,06,12,39,11.20
2010,05,06,12,40,11.20
2010,05,06,12,41,11.10
2010,05,06,12,42,11.00
2010,05,06,12,43,10.90
2010,05,06,12,44,10.80
2010,05,06,12,45,10.70
2010,05,06,12,46,10.60
2010,05,06,12,47,10.60
2010,05,06,12,48,10.60
2010,05,06,12,49,10.60
2010,05,06,12,50,10.60
2010,05,06,12,51,10.60
2010,05,06,12,52,10.50
2010,05,06,12,53,10.40
2010,05,06,12,54,10.50
2010,05,06,12,55,10.60
2010,05,06,12,56,10.60
2010,05,06,12,57,10.60
2010,05,06,12,58,10.60
2010,05,06,12,59,10.60
2010,05,06,13,00,10.70
2010,05,06,13,01,10.70
2010,05,06,13,02,10.50
2010,05,06,13,03,10.40
2010,05,06,13,04,10.40
2010,05,06,13,05,10.40
2010,05,06,13,06,10.40
2010,05,06,13,07,10.40
2010,05,06,13,08,10.50
2010,05,06,13,09,10.60
2010,05,06,13,10,10.60
2010,05,06,13,11,10.60
2010,05,06,13,12,10.60
2010,05,06,13,13,10.60
2010,05,06,13,14,10.60
2010,05,06,13,15,10.50
2010,05,06,13,16,10.40
2010,05,06,13,17,10.30
2010,05,06,13,18,10.40
2010,05,06,13,19,10.30
2010,05,06,13,20,10.40
2010,05,06,13,21,10.40
2010,05,06,13,22,10.40
2010,05,06,13,23,10.40
2010,05,06,13,24,10.50
2010,05,06,13,25,10.50
2010,05,06,13,26,10.40
2010,05,06,13,27,10.40
2010,05,06,13,28,10.50
2010,05,06,13,29,10.60
2010,05,06,13,30,10.60
2010,05,06,13,31,10.60
2010,05,06,13,32,10.60
2010,05,06,13,33,10.50
2010,05,06,13,34,10.40
2010,05,06,13,35,10.40
2010,05,06,13,36,10.50
2010,05,06,13,37,10.60
2010,05,06,13,38,10.60
2010,05,06,13,39,10.50
2010,05,06,13,40,10.40
2010,05,06,13,41,10.40
2010,05,06,13,42,10.40
2010,05,06,13,43,10.40
2010,05,06,13,44,10.30
2010,05,06,13,45,10.30
2010,05,06,13,46,10.20
2010,05,06,13,47,10.10
2010,05,06,13,48,10.10
2010,05,06,13,49,10.10
2010,05,06,13,50,10.10
2010,05,06,13,51,10.10
2010,05,06,13,52,10.10
2010,05,06,13,53,10.10
2010,05,06,13,54,10.10
2010,05,06,13,55,10.10
2010,05,06,13,56,10.00
2010,05,06,13,57,9.90
2010,05,06,13,58,9.90
2010,05,06,13,59,9.90
2010,05,06,14,00,10.00
2010,05,06,14,01,10.10
2010,05,06,14,02,10.10
2010,05,06,14,03,10.10
2010,05,06,14,04,10.10
2010,05,06,14,05,10.10
2010,05,06,14,06,10.10
2010,05,06,14,07,10.10
2010,05,06,14,08,10.10
2010,05,06,14,09,10.10
2010,05,06,14,10,10.20
2010,05,06,14,11,10.20
2010,05,06,14,12,10.30
2010,05,06,14,13,10.30
2010,05,06,14,14,10.40
2010,05,06,14,15,10.40
2010,05,06,14,16,10.40
2010,05,06,14,17,10.40
2010,05,06,14,18,10.50
2010,05,06,14,19,10.60
2010,05,06,14,20,10.60
2010,05,06,14,21,10.60
2010,05,06,14,22,10.60
2010,05,06,14,23,10.60
2010,05,06,14,24,10.60
2010,05,06,14,25,10.60
2010,05,06,14,26,10.70
2010,05,06,14,27,10.70
2010,05,06,14,28,10.80
2010,05,06,14,29,10.80
2010,05,06,14,30,10.90
2010,05,06,14,31,10.90
2010,05,06,14,32,10.90
2010,05,06,14,33,10.90
2010,05,06,14,34,10.90
2010,05,06,14,35,10.90
2010,05,06,14,36,10.90
2010,05,06,14,37,10.90
2010,05,06,14,38,10.80
2010,05,06,14,39,10.70
2010,05,06,14,40,10.60
2010,05,06,14,41,10.60
2010,05,06,14,42,10.50
2010,05,06,14,43,10.40
2010,05,06,14,44,10.40
2010,05,06,14,45,10.40
2010,05,06,14,46,10.40
2010,05,06,14,47,10.40
2010,05,06,14,48,10.40
2010,05,06,14,49,10.60
2010,05,06,14,50,10.60
2010,05,06,14,51,10.60
2010,05,06,14,52,10.50
2010,05,06,14,53,10.40
2010,05,06,14,54,10.40
2010,05,06,14,55,10.40
2010,05,06,14,56,10.40
2010,05,06,14,57,10.40
2010,05,06,14,58,10.60
2010,05,06,14,59,10.70
2010,05,06,15,00,10.60
2010,05,06,15,01,10.60
2010,05,06,15,02,10.60
2010,05,06,15,03,10.60
2010,05,06,15,04,10.60
2010,05,06,15,05,10.60
2010,05,06,15,06,10.60
2010,05,06,15,07,10.60
2010,05,06,15,08,10.70
2010,05,06,15,09,10.70
2010,05,06,15,10,10.70
2010,05,06,15,11,10.70
2010,05,06,15,12,10.80
2010,05,06,15,13,10.80
2010,05,06,15,14,10.70
2010,05,06,15,15,10.70
2010,05,06,15,16,10.60
2010,05,06,15,17,10.60
2010,05,06,15,18,10.60
2010,05,06,15,19,10.60
2010,05,06,15,20,10.60
2010,05,06,15,21,10.70
2010,05,06,15,22,10.70
2010,05,06,15,23,10.70
2010,05,06,15,24,10.80
2010,05,06,15,25,10.80
2010,05,06,15,26,10.90
2010,05,06,15,27,10.90
2010,05,06,15,28,10.90
2010,05,06,15,29,10.90
2010,05,06,15,30,10.90
2010,05,06,15,31,10.90
2010,05,06,15,32,11.00
2010,05,06,15,33,11.10
2010,05,06,15,34,11.10
2010,05,06,15,35,11.10
2010,05,06,15,36,11.00
2010,05,06,15,37,11.00
2010,05,06,15,38,11.10
2010,05,06,15,39,11.10
2010,05,06,15,40,11.10
2010,05,06,15,41,11.10
2010,05,06,15,42,11.10
2010,05,06,15,43,11.00
2010,05,06,15,44,10.90
2010,05,06,15,45,11.00
2010,05,06,15,46,10.90
2010,05,06,15,47,10.90
2010,05,06,15,48,11.00
2010,05,06,15,49,11.10
2010,05,06,15,50,11.10
2010,05,06,15,51,11.10
2010,05,06,15,52,11.20
2010,05,06,15,53,11.20
2010,05,06,15,54,11.20
2010,05,06,15,55,11.20
2010,05,06,15,56,11.10
2010,05,06,15,57,11.10
2010,05,06,15,58,11.00
2010,05,06,15,59,10.90
2010,05,06,16,00,10.90
2010,05,06,16,01,10.90
2010,05,06,16,02,10.90
2010,05,06,16,03,10.90
2010,05,06,16,04,10.90
2010,05,06,16,05,10.80
2010,05,06,16,06,10.80
2010,05,06,16,07,10.80
2010,05,06,16,08,10.80
2010,05,06,16,09,10.80
2010,05,06,16,10,10.80
2010,05,06,16,11,10.80
2010,05,06,16,12,10.90
2010,05,06,16,13,10.90
2010,05,06,16,14,10.90
2010,05,06,16,15,10.90
2010,05,06,16,16,10.90
2010,05,06,16,17,11.00
2010,05,06,16,18,11.10
2010,05,06,16,19,11.10
2010,05,06,16,20,11.10
2010,05,06,16,21,11.20
2010,05,06,16,22,11.20
2010,05,06,16,23,11.20
2010,05,06,16,24,11.20
2010,05,06,16,25,11.20
2010,05,06,16,26,11.20
2010,05,06,16,27,11.20
2010,05,06,16,28,11.20
2010,05,06,16,29,11.10
2010,05,06,16,30,11.10
2010,05,06,16,31,11.10
2010,05,06,16,32,11.10
2010,05,06,16,33,11.20
2010,05,06,16,34,11.20
2010,05,06,16,35,11.30
2010,05,06,16,36,11.30
2010,05,06,16,37,11.30
2010,05,06,16,38,11.20
2010,05,06,16,39,11.20
2010,05,06,16,40,11.20
2010,05,06,16,41,11.20
2010,05,06,16,42,11.20
2010,05,06,16,43,11.30
2010,05,06,16,44,11.30
2010,05,06,16,45,11.40
2010,05,06,16,46,11.50
2010,05,06,16,47,11.60
2010,05,06,16,48,11.60
2010,05,06,16,49,11.70
2010,05,06,16,50,11.80
2010,05,06,16,51,11.80
2010,05,06,16,52,11.80
2010,05,06,16,53,11.80
2010,05,06,16,54,11.80
2010,05,06,16,55,11.80
2010,05,06,16,56,11.70
2010,05,06,16,57,11.70
2010,05,06,16,58,11.70
2010,05,06,16,59,11.80
2010,05,06,17,00,11.80
2010,05,06,17,01,11.80
2010,05,06,17,02,11.80
2010,05,06,17,03,11.80
2010,05,06,17,04,11.80
2010,05,06,17,05,11.80
2010,05,06,17,06,11.80
2010,05,06,17,07,11.90
2010,05,06,17,08,11.90
2010,05,06,17,09,11.90
2010,05,06,17,10,11.90
2010,05,06,17,11,11.90
2010,05,06,17,12,11.90
2010,05,06,17,13,11.90
2010,05,06,17,14,11.90
2010,05,06,17,15,11.80
2010,05,06,17,16,11.80
2010,05,06,17,17,11.80
2010,05,06,17,18,11.70
2010,05,06,17,19,11.60
2010,05,06,17,20,11.60
2010,05,06,17,21,11.50
2010,05,06,17,22,11.40
2010,05,06,17,23,11.40
2010,05,06,17,24,11.30
2010,05,06,17,25,11.30
2010,05,06,17,26,11.30
2010,05,06,17,27,11.20
2010,05,06,17,28,11.10
2010,05,06,17,29,11.10
2010,05,06,17,30,10.90
2010,05,06,17,31,10.90
2010,05,06,17,32,10.90
2010,05,06,17,33,10.80
2010,05,06,17,34,10.80
2010,05,06,17,35,10.70
2010,05,06,17,36,10.70
2010,05,06,17,37,10.60
2010,05,06,17,38,10.60
2010,05,06,17,39,10.60
2010,05,06,17,40,10.60
2010,05,06,17,41,10.60
2010,05,06,17,42,10.60
2010,05,06,17,43,10.60
2010,05,06,17,44,10.60